CST,Max TemperatureF,Mean TemperatureF,Min TemperatureF,Max Dew PointF,MeanDew PointF,Min DewpointF,Max Humidity, Mean Humidity, Min Humidity, Max Sea Level PressureIn, Mean Sea Level PressureIn, Min Sea Level PressureIn, Max VisibilityMiles, Mean VisibilityMiles, Min VisibilityMiles, Max Wind SpeedMPH, Mean Wind SpeedMPH, Max Gust SpeedMPH,PrecipitationIn, CloudCover, Events, WindDirDegrees
2012-12-1,56,42,27,46,35,26,100,83,66,29.97,29.85,29.77,10,4,0,14,7,16,0.00,3,Fog,164
2012-12-2,58,41,23,42,31,21,100,78,55,30.05,29.91,29.74,10,5,0,16,8,22,0.00,1,Fog,135
2012-12-3,60,45,30,45,37,20,100,68,36,30.09,29.73,29.58,10,5,0,35,12,41,0.00,2,Fog,179
2012-12-4,53,37,20,24,20,16,82,59,23,30.34,30.24,30.10,10,10,10,17,5,20,0.00,0,,351
2012-12-5,54,38,22,28,23,16,75,51,22,30.35,30.05,29.84,10,10,10,26,15,32,0.00,1,,152
2012-12-6,52,46,39,36,28,23,70,51,32,30.04,29.95,29.83,10,10,10,23,11,28,0.01,6,Rain,325
2012-12-7,40,34,28,29,27,22,92,73,54,30.05,29.99,29.92,10,7,0,13,6,16,0.09,8,Fog-Snow,49
2012-12-8,35,31,26,30,27,25,92,84,75,30.05,29.97,29.86,10,7,2,21,6,26,0.00,7,,130
2012-12-9,36,23,10,32,17,2,89,78,57,30.19,29.98,29.80,10,8,2,36,18,45,T,8,Snow,291
2012-12-10,27,15,3,13,4,-2,80,67,43,30.19,30.06,29.93,10,10,10,28,9,35,0.00,2,,304
2012-12-11,42,31,19,24,19,14,84,66,48,30.00,29.97,29.93,10,10,10,15,8,21,0.00,2,,244
2012-12-12,53,41,29,18,17,16,68,47,26,29.96,29.92,29.85,10,10,10,31,17,38,0.00,0,,187
2012-12-13,42,31,19,23,18,14,84,62,40,30.14,30.04,29.91,10,10,10,17,7,22,0.00,0,,278
2012-12-14,49,33,16,38,26,14,92,71,49,30.10,29.87,29.61,10,10,7,17,8,22,0.01,2,Rain,133
2012-12-15,43,37,30,42,38,26,100,91,82,29.74,29.55,29.46,10,5,2,23,11,29,0.96,8,Rain-Snow,51
2012-12-16,30,28,25,27,23,21,92,84,75,29.86,29.81,29.72,10,10,10,17,8,20,0.00,6,,332
2012-12-17,30,27,24,27,25,23,92,88,84,29.82,29.73,29.62,10,7,2,13,5,16,T,8,,129
2012-12-18,38,31,23,29,27,24,100,85,70,29.89,29.68,29.48,10,6,1,21,7,25,0.00,6,,333
2012-12-19,42,33,23,30,26,21,100,80,59,29.97,29.93,29.89,10,5,0,31,10,37,0.19,6,Fog-Snow,13
2012-12-20,23,17,11,19,14,8,93,82,67,30.27,30.07,29.90,10,6,1,35,20,41,0.08,5,,327
2012-12-21,21,12,3,14,9,1,96,83,68,30.39,30.31,30.20,10,10,6,13,6,15,0.00,0,,133
2012-12-22,32,23,13,23,15,9,91,79,65,30.18,30.07,29.99,10,10,8,17,9,22,0.00,0,,50
2012-12-23,21,15,9,15,10,5,88,78,67,30.14,30.10,30.02,10,10,9,15,6,18,0.00,3,,350
2012-12-24,18,12,5,10,6,-2,84,75,66,30.40,30.19,30.03,10,9,2,22,14,26,T,5,Snow,332
2012-12-25,13,8,2,4,0,-4,87,77,66,30.60,30.50,30.41,10,10,10,17,11,21,0.00,1,,345
2012-12-26,18,8,-2,9,3,-5,88,76,58,30.46,30.34,30.25,10,10,10,10,3,13,0.00,1,,28
2012-12-27,21,14,7,18,14,6,93,87,78,30.23,30.11,30.01,10,5,0,14,7,17,0.27,7,Fog-Snow,102
2012-12-28,21,15,8,18,14,6,93,87,77,30.17,30.06,29.99,8,4,1,18,9,21,0.06,8,Snow,336
2012-12-29,19,8,-4,12,3,-8,92,86,75,30.28,30.20,30.11,10,6,0,14,5,17,0.00,4,Fog,271
2012-12-30,34,17,0,24,12,0,95,80,64,30.27,30.12,29.91,10,9,7,21,11,25,0.00,0,,171
2012-12-31,22,11,0,16,11,-3,92,80,68,30.36,30.25,30.15,10,10,9,20,8,22,0.00,4,,3